Find Starlink 35129

NORAD ID: 66077 Int'l Des: 2025-235 Owner: SPXS Country: US Constellation: starlink operational
LEOCIRCULAR

現在のビュー

3D地球を読み込み中...

About Starlink 35129

Starlink 35129 (NORAD 66077) is a starlink constellation satellite (v2 mini) launched Oct 19, 2025 by SPXS of US. It operates in LEO, CIRCULAR orbit with a mass of 575.00 kg.

次回通過

Passes for default location (London). Set your location on the main map for personalized predictions.

高度履歴

Loading altitude history...

軌道要素

1 66077U 25235V 26263.15828164 .00018960 00000-0 57078-3 0 9991
2 66077 53.1606 59.2751 0000275 41.1948 318.9076 15.34404663 52736
Epoch: Sep 20, 2026 • Age: 22 hours

現在のステータス

高度 481.2 km
遠地点 / 近地点 N/A
速度 7.62 km/s
衛星直下点 -53.27°S, 51.13°W
打ち上げ日 Oct 19, 2025
運用期間 0.9 years
タイプ internet

技術仕様

分類 Payload
質量 575.00 kg
乾燥質量 530.00 kg
長さ 0.30 m
スパン 29.00 m
形状 ? Box + pan
製造者 SPXS
バスタイプ Starlink V2MO
フェーズステータス In Orbit
所有者/国 SPXS/US

Most Searched